Blacksburg, VA

9:35 AM EDT on September 23, 2017 (GMT -0400)
Virginia Tech

Weather History for KBCB - October, 2012

Change the Weather History Date:

Sunday, October 14, 2012

  Actual Average Record
Temperature  
Mean Temperature 55 °F 53 °F  
Max Temperature 70 °F 66 °F 84 °F (1954)
Min Temperature 39 °F 40 °F 21 °F (1988)
Degree Days  
Heating Degree Days 10 12  
Month to date heating degree days 167 146  
Since 1 July heating degree days 273 277  
Cooling Degree Days 0 0  
Month to date cooling degree days 2 1  
Year to date cooling degree days 716 570  
Growing Degree Days 6 (Base 50)    
Moisture  
Dew Point 51 °F    
Average Humidity 81    
Maximum Humidity 100    
Minimum Humidity 61    
Precipitation  
Precipitation 0.00 in 0.09 in 1.26 in (1959)
Month to date precipitation 1.18 1.26  
Year to date precipitation 32.50 33.55  
Snow  
Snow 0.00 in - - ()
Month to date snowfall 0.0  
Since 1 July snowfall T  
Since 1 September snowfall 0.0  
Snow Depth 0.00 in    
Sea Level Pressure  
Sea Level Pressure 30.20 in    
Wind  
Wind Speed 3 mph (SSW)    
Max Wind Speed 9 mph    
Max Gust Speed 17 mph    
Visibility 10 miles    
Events      
T = Trace of Precipitation, MM = Missing Value Source: NWS Daily Summary

Daily Weather History Graph

Daily Weather History Graph

Search for Another Location

Airport or City:

Trip Planner

Search our weather history database for the weather conditions in past years. The results will help you decide how hot, cold, wet, or windy it might be!

Date:

Astronomy

Oct. 14, 2012 Rise Set
Actual Time 7:29 AM EDT 6:45 PM EDT
Civil Twilight 7:02 AM EDT 7:11 PM EDT
Nautical Twilight 6:32 AM EDT 7:41 PM EDT
Astronomical Twilight 6:02 AM EDT 8:11 PM EDT
Moon 6:26 AM EDT (10/14) 6:04 PM EDT (10/14)
Length of Visible Light 12h 08m
Length of Day
11h 16m
Waning Crescent, 1% of the Moon is Illuminated
Oct 14
Waning Crescent
Oct 15
New
Oct 21
First Quarter
Oct 29
Full
Nov 6
Last Quarter

Hourly Weather History & Observations

Time (EDT) Temp. Dew Point Humidity Pressure Visibility Wind Dir Wind Speed Gust Speed Precip Events Conditions
12:15 AM 46.4 °F 44.6 °F 93% 30.33 in 10.0 mi Calm Calm - N/A   Clear
12:35 AM 44.6 °F 44.6 °F 100% 30.33 in 10.0 mi Calm Calm - N/A   Clear
1:15 AM 42.8 °F 42.8 °F 100% 30.32 in 10.0 mi Calm Calm - N/A   Clear
1:35 AM 42.8 °F 42.8 °F 100% 30.31 in 10.0 mi Calm Calm - N/A   Clear
1:55 AM 42.8 °F 42.8 °F 100% 30.32 in 10.0 mi Calm Calm - N/A   Clear
2:15 AM 42.8 °F 42.8 °F 100% 30.31 in 10.0 mi Calm Calm - N/A   Clear
2:35 AM 42.8 °F 42.8 °F 100% 30.30 in 10.0 mi Calm Calm - N/A   Clear
2:55 AM 42.8 °F 42.8 °F 100% 30.30 in 10.0 mi Calm Calm - N/A   Clear
3:15 AM 42.8 °F 42.8 °F 100% 30.30 in 10.0 mi Calm Calm - N/A   Clear
3:35 AM 42.8 °F 42.8 °F 100% 30.29 in 10.0 mi Calm Calm - N/A   Clear
3:55 AM 42.8 °F 42.8 °F 100% 30.28 in 10.0 mi Calm Calm - N/A   Clear
4:15 AM 41.0 °F 41.0 °F 100% 30.28 in 7.0 mi Calm Calm - N/A   Clear
4:35 AM 41.0 °F 41.0 °F 100% 30.28 in 7.0 mi Calm Calm - N/A   Clear
4:55 AM 41.0 °F 41.0 °F 100% 30.28 in 5.0 mi Calm Calm - N/A   Clear
5:15 AM 42.8 °F 42.8 °F 100% 30.28 in 10.0 mi Calm Calm - N/A   Clear
5:35 AM 42.8 °F 42.8 °F 100% 30.27 in 10.0 mi Calm Calm - N/A   Clear
5:55 AM 42.8 °F 42.8 °F 100% 30.27 in 10.0 mi Calm Calm - N/A   Clear
6:15 AM 42.8 °F 42.8 °F 100% 30.27 in 10.0 mi Calm Calm - N/A   Clear
6:35 AM 42.8 °F 42.8 °F 100% 30.28 in 7.0 mi Calm Calm - N/A   Clear
6:55 AM 42.8 °F 42.8 °F 100% 30.27 in 10.0 mi Calm Calm - N/A   Clear
7:15 AM 42.8 °F 42.8 °F 100% 30.27 in 10.0 mi Calm Calm - N/A   Clear
7:35 AM 42.8 °F 42.8 °F 100% 30.28 in 5.0 mi Calm Calm - N/A   Clear
7:55 AM 42.8 °F 42.8 °F 100% 30.28 in 5.0 mi Calm Calm - N/A   Clear
8:15 AM 44.6 °F 44.6 °F 100% 30.28 in 10.0 mi Calm Calm - N/A   Clear
8:35 AM 48.2 °F 48.2 °F 100% 30.29 in 10.0 mi Calm Calm - N/A   Clear
8:55 AM 51.8 °F 50.0 °F 94% 30.28 in 10.0 mi Calm Calm - N/A   Clear
9:15 AM 53.6 °F 50.0 °F 88% 30.28 in 10.0 mi Calm Calm - N/A   Clear
9:35 AM 55.4 °F 51.8 °F 88% 30.28 in 10.0 mi Calm Calm - N/A   Clear
9:55 AM 57.2 °F 51.8 °F 82% 30.28 in 10.0 mi NW 3.5 mph - N/A   Clear
10:15 AM 57.2 °F 51.8 °F 82% 30.28 in 10.0 mi Calm Calm - N/A   Clear
10:35 AM 59.0 °F 51.8 °F 77% 30.27 in 10.0 mi Calm Calm - N/A   Clear
10:55 AM 60.8 °F 53.6 °F 77% 30.26 in 10.0 mi Calm Calm - N/A   Clear
11:15 AM 60.8 °F 51.8 °F 72% 30.26 in 10.0 mi SSW 4.6 mph - N/A   Clear
11:35 AM 62.6 °F 53.6 °F 72% 30.25 in 10.0 mi SSW 6.9 mph - N/A   Scattered Clouds
11:55 AM 66.2 °F 53.6 °F 64% 30.25 in 10.0 mi South 5.8 mph - N/A   Scattered Clouds
12:15 PM 66.2 °F 55.4 °F 68% 30.23 in 10.0 mi SSW 5.8 mph - N/A   Clear
12:35 PM 64.4 °F 53.6 °F 68% 30.23 in 10.0 mi SW 3.5 mph - N/A   Mostly Cloudy
12:55 PM 68.0 °F 55.4 °F 64% 30.21 in 10.0 mi SSW 8.1 mph - N/A   Scattered Clouds
1:15 PM 68.0 °F 55.4 °F 64% 30.21 in 10.0 mi South 6.9 mph - N/A   Clear
1:35 PM 69.8 °F 55.4 °F 60% 30.20 in 10.0 mi SSW 4.6 mph - N/A   Clear
1:55 PM 68.0 °F 57.2 °F 68% 30.19 in 10.0 mi SSW 5.8 mph - N/A   Clear
2:15 PM 69.8 °F 57.2 °F 64% 30.18 in 10.0 mi SSW 4.6 mph - N/A   Clear
2:35 PM 69.8 °F 57.2 °F 64% 30.16 in 10.0 mi SSW 4.6 mph - N/A   Clear
2:55 PM 71.6 °F 57.2 °F 60% 30.15 in 10.0 mi South 8.1 mph - N/A   Clear
3:15 PM 69.8 °F 57.2 °F 64% 30.14 in 10.0 mi SSW 6.9 mph - N/A   Scattered Clouds
3:35 PM 69.8 °F 57.2 °F 64% 30.15 in 10.0 mi South 9.2 mph - N/A   Clear
4:15 PM 66.2 °F 57.2 °F 73% 30.13 in 10.0 mi South 13.8 mph 18.4 mph N/A   Clear
4:35 PM 64.4 °F 57.2 °F 77% 30.12 in 10.0 mi South 10.4 mph 16.1 mph N/A   Clear
4:55 PM 66.2 °F 57.2 °F 73% 30.12 in 10.0 mi South 9.2 mph 17.3 mph N/A   Clear
5:15 PM 64.4 °F 57.2 °F 77% 30.12 in 10.0 mi South 8.1 mph - N/A   Clear
5:35 PM 64.4 °F 57.2 °F 77% 30.12 in 10.0 mi South 6.9 mph - N/A   Clear
5:55 PM 64.4 °F 57.2 °F 77% 30.12 in 10.0 mi South 6.9 mph - N/A   Clear
6:15 PM 62.6 °F 57.2 °F 82% 30.11 in 10.0 mi South 6.9 mph - N/A   Clear
6:35 PM 62.6 °F 57.2 °F 82% 30.11 in 10.0 mi SSW 4.6 mph - N/A   Clear
6:55 PM 60.8 °F 57.2 °F 88% 30.11 in 10.0 mi South 3.5 mph - N/A   Clear
7:15 PM 60.8 °F 57.2 °F 88% 30.09 in 10.0 mi SSE 5.8 mph - N/A   Scattered Clouds
7:35 PM 60.8 °F 57.2 °F 88% 30.08 in 10.0 mi South 4.6 mph - N/A   Clear
7:55 PM 60.8 °F 57.2 °F 88% 30.08 in 10.0 mi SSW 3.5 mph - N/A   Clear
8:15 PM 60.8 °F 57.2 °F 88% 30.08 in 10.0 mi South 4.6 mph - N/A   Clear
8:35 PM 60.8 °F 57.2 °F 88% 30.07 in 10.0 mi South 4.6 mph - N/A   Clear
8:55 PM 60.8 °F 57.2 °F 88% 30.07 in 10.0 mi SSW 5.8 mph - N/A   Clear
9:15 PM 60.8 °F 57.2 °F 88% 30.07 in 10.0 mi SSW 4.6 mph - N/A   Scattered Clouds
9:35 PM 62.6 °F 59.0 °F 88% 30.07 in 10.0 mi Calm Calm - N/A   Mostly Cloudy
9:55 PM 60.8 °F 59.0 °F 94% 30.06 in 10.0 mi SW 3.5 mph - N/A   Overcast
10:15 PM 60.8 °F 59.0 °F 94% 30.06 in 10.0 mi Calm Calm - N/A   Overcast
10:35 PM 60.8 °F 57.2 °F 88% 30.06 in 10.0 mi Calm Calm - N/A   Scattered Clouds
10:55 PM 59.0 °F 57.2 °F 94% 30.06 in 10.0 mi Calm Calm - N/A   Scattered Clouds
11:15 PM 60.8 °F 59.0 °F 94% 30.06 in 10.0 mi SW 4.6 mph - N/A   Scattered Clouds
11:35 PM 60.8 °F 59.0 °F 94% 30.05 in 10.0 mi Calm Calm - N/A   Mostly Cloudy
11:55 PM 60.8 °F 59.0 °F 94% 30.04 in 10.0 mi SSW 3.5 mph - N/A   Mostly Cloudy